STARLINK-34928 (65195 NORAD) Tracking and Keplerian Element Data

This shows tracking and keplerian element data for the satellite.

Feedback or suggestion? Click here.




ElementValue
Catalog65195
NameSTARLINK-34928
Epoch Orbit2066
Epoch Day354.06560931
Epoch Year2025
RAAN224.2447
Inclination97.6025
Eccentricity0.0002307
Argument of Perigee85.5731
Mean Anonmoly274.576
Mean Motion15.05654205
Decay Rate1.528E-05
L11 65195U 25175X 25354.06560931 .00001528 00000+0 11007-3 0 9992
L22 65195 97.6025 224.2447 0002307 85.5731 274.5760 15.05654205 20661



Live tracking and technical data element details for STARLINK-34928 (NORAD 65195). STARLINK-34928 can be tracked NOW for your location showing map with azimuth and elevation plus other details from your city location.







IsCatalogInMostPopularTable: catalog: 65195, numindb: 3
Update: records affected: 1



GetName: 65195 STARLINK-34928

Hit Count: updated at: Wed, 11 Feb 2026 15:14:07 GMT